Location: B?dimalle
(17.1788°N, 80.5377°E)
Time: 11:49:39
(UTC+00:00)

Vanguard 3 - Visible Passes

Search period start: 16 February 2026 00:00
Search period end: 26 February 2026 00:00
Orbit: 507 x 3205 km, 33.3° (Epoch: 16 February)

Date Brightness Start Highest point End Pass type
(mag) Time Alt. Az. Time Alt. Az. Time Alt. Az.
17 Feb 9.0 13:10:34 10° NW 13:13:55 14° NNW 13:16:38 10° NNE visible
18 Feb 8.8 14:02:04 10° NNW 14:04:31 13° N 14:05:20 13° NNE visible
19 Feb 9.3 14:51:43 10° NNW 14:52:22 12° NNW 14:52:22 12° NNW visible
20 Feb 8.8 13:28:50 10° NW 13:32:38 16° N 13:35:29 10° NE visible
21 Feb 8.4 14:19:00 10° NW 14:22:33 21° N 14:22:33 21° N visible
22 Feb 8.9 12:55:28 10° NW 13:00:43 20° N 13:04:30 10° NE visible
22 Feb 9.3 15:08:36 10° NW 15:09:38 15° NW 15:09:38 15° NW visible
23 Feb 8.1 13:46:03 10° NW 13:51:18 26° NNE 13:52:49 22° NE visible
24 Feb 7.8 14:36:00 10° NW 14:39:58 37° NNW 14:39:58 37° NNW visible
25 Feb 8.3 13:12:50 10° NW 13:19:23 31° NNE 13:23:12 13° ENE visible
25 Feb 9.5 15:26:09 10° WNW 15:27:08 15° WNW 15:27:08 15° WNW visible
